Regional Weather Roundup
Issued by NWS

Home | Current Version | Previous Version | Text Only | Print | Product List | Glossary Off
Versions: 1 2 3 4 5 6 7 8 9 10 11 12 13 14 15 16 17 18 19 20 21 22 23 24 25 26 27 28 29 30 31 32 33 34 35 36 37 38 39 40 41 42 43 44 45 46 47 48 49 50

312
ASUS43 KLSX 052310
RWRMO

WEATHER SUMMARY FOR MISSOURI
NATIONAL WEATHER SERVICE SPRINGFIELD MO
600 PM CDT THU MAY 05 2016

NOTE: "FAIR" INDICATES FEW OR NO CLOUDS BELOW 12,000 FEET WITH NO
       SIGNIFICANT WEATHER AND/OR OBSTRUCTIONS TO VISIBILITY.
       CURRENT SKY AND/OR WEATHER CONDITIONS ARE NOT AVAILABLE FOR
       CHILLICOTHE AND FARMINGTON.

MOZ001>031-035>038-043-044-053-054-060000-
...NORTHERN AND WESTERN MISSOURI...

CITY           SKY/WX    TMP DP  RH WIND       PRES   REMARKS
KANSAS CTY INT MOSUNNY   72  39  30 N3        30.03F
KANSAS C DTWN  SUNNY     74  37  26 N8        30.02F HAZE
LEE`S SUMMIT   SUNNY     72  36  26 N3        30.03F
ST JOSEPH      SUNNY     73  35  25 CALM      30.03F
CHILLICOTHE      N/A     73  37  27 CALM      30.04F
KIRKSVILLE     SUNNY     68  37  32 N5        30.03F

$$
MOZ066>068-077>081-088>096-101>105-060000-
...SOUTHWEST MISSOURI...

CITY           SKY/WX    TMP DP  RH WIND       PRES   REMARKS
SPRINGFIELD    SUNNY     70  31  23 N14       30.02S
JOPLIN         SUNNY     72  43  35 VRB7      30.03F
BRANSON        MOSUNNY   70  32  24 N10G20    30.02S

$$
MOZ032>034-039>042-045>050-055>058-069>072-060000-
...CENTRAL MISSOURI...

CITY           SKY/WX    TMP DP  RH WIND       PRES   REMARKS
COLUMBIA       SUNNY     68  35  29 N13       30.02F
JEFFERSON CITY SUNNY     70  33  25 N10       30.02S
ROLLA          SUNNY     66  38  35 N10       30.00S
SEDALIA        SUNNY     72  30  21 N8        30.04F
WHITEMAN AFB   SUNNY     70  35  27 N5        30.02F
WARRENSBURG    SUNNY     70  32  24 N7        30.03F
OSAGE BEACH    SUNNY     68  32  26 NW6       30.03S

$$
MOZ051-052-059>065-060000-
...EAST CENTRAL MISSOURI...

CITY           SKY/WX    TMP DP  RH WIND       PRES   REMARKS
ST LOUIS INTL  MOSUNNY   67  42  40 N8        30.01S
SPIRIT OF STL  MOSUNNY   67  43  41 N7        30.00S
ST CHARLES     MOSUNNY   65  44  46 N8        30.00S

$$
MOZ072>076-082>087-097>100-106>115-060000-
...SOUTH CENTRAL AND SOUTHEAST MISSOURI...

CITY           SKY/WX    TMP DP  RH WIND       PRES   REMARKS
CAPE GIRARDEAU MOSUNNY   62  43  49 N14       29.99F
FARMINGTON     MOSUNNY   63  43  48 NE9G17    30.01S
POPLAR BLUFF   MOSUNNY   68  42  38 N14       29.97R
WEST PLAINS    SUNNY     68  30  24 N14G20    30.01R

$$




USA.gov is the U.S. government's official web portal to all federal, state and local government web resources and services.